PSBHZ MHLM-MSLP

Flight info

Callsign PSBHZ
Flight time 1h 13m
Altitude 18000
Route TALAG1 TALAG DCT LEPAX DCT NAGEL NAGEL2
Aircraft C208/L-SDFGR/C

Departure

Time 2026-05-07 22:26
Airport Ramón Villeda Morales International Airport (MHLM)

Arrival

Time 2026-05-07 23:39
Airport El Salvador International Airport Saint Óscar Arnulfo Romero y Galdámez (MSLP)
Time Latitude Longitude Altitude Speed Heading
2026-05-07 22:04 15.45469 -87.92635 95 ft 0 kts 132°
2026-05-07 22:20 15.45465 -87.92630 95 ft 5 kts 132°
2026-05-07 22:20 15.45417 -87.92647 95 ft 12 kts 199°
2026-05-07 22:20 15.45353 -87.92609 95 ft 13 kts 119°
2026-05-07 22:20 15.45275 -87.92517 96 ft 18 kts 131°
2026-05-07 22:21 15.45252 -87.92488 96 ft 0 kts 129°
2026-05-07 22:24 15.45249 -87.92484 96 ft 4 kts 129°
2026-05-07 22:24 15.45209 -87.92432 96 ft 12 kts 125°
2026-05-07 22:25 15.45219 -87.92395 96 ft 0 kts 41°
2026-05-07 22:25 15.45276 -87.92346 96 ft 33 kts 41°
2026-05-07 22:25 15.45575 -87.92106 164 ft 64 kts 38°
2026-05-07 22:26 15.45938 -87.91812 357 ft 71 kts 32°
2026-05-07 22:26 15.46337 -87.91584 696 ft 63 kts 25°
2026-05-07 22:26 15.46706 -87.91284 918 ft 76 kts 44°
2026-05-07 22:26 15.47101 -87.90853 1133 ft 89 kts 41°
2026-05-07 22:27 15.47567 -87.90362 1330 ft 103 kts 41°
2026-05-07 22:27 15.48122 -87.89805 1518 ft 118 kts 41°
2026-05-07 22:27 15.48743 -87.89190 1714 ft 129 kts 41°
2026-05-07 22:27 15.49415 -87.88528 1909 ft 137 kts 41°
2026-05-07 22:28 15.50133 -87.87847 2098 ft 143 kts 41°
2026-05-07 22:28 15.50888 -87.87153 2283 ft 147 kts 41°
2026-05-07 22:28 15.51666 -87.86449 2466 ft 150 kts 41°
2026-05-07 22:28 15.52463 -87.85742 2648 ft 151 kts 41°
2026-05-07 22:29 15.53266 -87.85053 2823 ft 153 kts 41°
2026-05-07 22:29 15.54086 -87.84342 3003 ft 155 kts 41°
2026-05-07 22:29 15.54926 -87.83626 3179 ft 157 kts 41°
2026-05-07 22:29 15.55777 -87.82910 3349 ft 156 kts 41°
2026-05-07 22:30 15.56620 -87.82203 3528 ft 156 kts 41°
2026-05-07 22:30 15.57464 -87.81486 3700 ft 157 kts 41°
2026-05-07 22:30 15.58309 -87.80768 3871 ft 157 kts 41°
2026-05-07 22:30 15.59156 -87.80050 4043 ft 157 kts 41°
2026-05-07 22:31 15.59998 -87.79332 4261 ft 155 kts 41°
2026-05-07 22:31 15.60829 -87.78625 4506 ft 154 kts 41°
2026-05-07 22:31 15.61654 -87.77922 4756 ft 153 kts 41°
2026-05-07 22:31 15.62477 -87.77222 5001 ft 153 kts 41°
2026-05-07 22:32 15.63301 -87.76519 5250 ft 154 kts 41°
2026-05-07 22:32 15.64130 -87.75810 5499 ft 155 kts 41°
2026-05-07 22:32 15.64961 -87.75101 5742 ft 156 kts 41°
2026-05-07 22:32 15.65796 -87.74384 5991 ft 155 kts 41°
2026-05-07 22:33 15.66627 -87.73669 6239 ft 155 kts 41°
2026-05-07 22:33 15.67461 -87.72953 6485 ft 156 kts 41°
2026-05-07 22:33 15.68298 -87.72235 6739 ft 156 kts 41°
2026-05-07 22:33 15.69138 -87.71513 6986 ft 157 kts 41°
2026-05-07 22:34 15.69987 -87.70789 7239 ft 158 kts 41°
2026-05-07 22:34 15.70839 -87.70066 7483 ft 158 kts 41°
2026-05-07 22:34 15.71690 -87.69344 7738 ft 158 kts 41°
2026-05-07 22:34 15.72542 -87.68618 7980 ft 158 kts 41°
2026-05-07 22:35 15.73106 -87.68141 8146 ft 158 kts 41°
2026-05-07 22:35 15.74239 -87.67177 8473 ft 157 kts 41°
2026-05-07 22:35 15.74802 -87.66701 8640 ft 158 kts 41°
2026-05-07 22:35 15.75654 -87.65985 8887 ft 158 kts 41°
2026-05-07 22:36 15.76786 -87.65031 9216 ft 159 kts 41°
2026-05-07 22:36 15.77365 -87.64542 9392 ft 159 kts 41°
2026-05-07 22:36 15.78230 -87.63814 9641 ft 161 kts 41°
2026-05-07 22:36 15.79097 -87.63083 9885 ft 160 kts 41°
2026-05-07 22:37 15.79948 -87.62357 10135 ft 160 kts 41°
2026-05-07 22:37 15.80800 -87.61635 10381 ft 156 kts 41°
2026-05-07 22:37 15.81625 -87.60918 10620 ft 153 kts 48°
2026-05-07 22:37 15.81967 -87.59936 10847 ft 146 kts 98°
2026-05-07 22:38 15.81450 -87.59085 11082 ft 143 kts 148°
2026-05-07 22:38 15.80484 -87.58882 11333 ft 142 kts 175°
2026-05-07 22:38 15.79500 -87.58824 11571 ft 142 kts 174°
2026-05-07 22:38 15.78508 -87.58767 11776 ft 144 kts 175°
2026-05-07 22:39 15.77521 -87.58714 11973 ft 144 kts 175°
2026-05-07 22:39 15.76521 -87.58663 12175 ft 144 kts 175°
2026-05-07 22:39 15.75513 -87.58611 12374 ft 145 kts 175°
2026-05-07 22:39 15.74512 -87.58560 12573 ft 145 kts 175°
2026-05-07 22:40 15.73492 -87.58509 12767 ft 146 kts 175°
2026-05-07 22:40 15.72478 -87.58457 12972 ft 146 kts 175°
2026-05-07 22:40 15.71462 -87.58405 13173 ft 146 kts 175°
2026-05-07 22:40 15.70446 -87.58354 13373 ft 146 kts 175°
2026-05-07 22:41 15.69430 -87.58303 13580 ft 146 kts 175°
2026-05-07 22:41 15.68414 -87.58252 13769 ft 146 kts 175°
2026-05-07 22:41 15.67402 -87.58202 13966 ft 145 kts 175°
2026-05-07 22:41 15.66387 -87.58149 14160 ft 147 kts 175°
2026-05-07 22:42 15.65368 -87.58097 14336 ft 150 kts 175°
2026-05-07 22:42 15.64321 -87.58043 14518 ft 151 kts 175°
2026-05-07 22:42 15.63259 -87.57989 14693 ft 153 kts 175°
2026-05-07 22:42 15.62189 -87.57933 14871 ft 155 kts 175°
2026-05-07 22:43 15.61106 -87.57874 15053 ft 156 kts 175°
2026-05-07 22:43 15.60017 -87.57817 15225 ft 157 kts 175°
2026-05-07 22:43 15.58923 -87.57764 15408 ft 158 kts 175°
2026-05-07 22:43 15.57823 -87.57714 15583 ft 158 kts 175°
2026-05-07 22:44 15.56726 -87.57664 15760 ft 158 kts 175°
2026-05-07 22:44 15.55627 -87.57614 15932 ft 158 kts 175°
2026-05-07 22:44 15.54525 -87.57561 16106 ft 159 kts 175°
2026-05-07 22:44 15.53428 -87.57509 16279 ft 160 kts 175°
2026-05-07 22:45 15.52299 -87.57455 16457 ft 161 kts 175°
2026-05-07 22:45 15.51192 -87.57404 16630 ft 161 kts 175°
2026-05-07 22:45 15.50070 -87.57357 16808 ft 161 kts 175°
2026-05-07 22:45 15.48948 -87.57324 16979 ft 162 kts 181°
2026-05-07 22:46 15.47919 -87.57788 17141 ft 167 kts 220°
2026-05-07 22:46 15.47136 -87.58676 17319 ft 167 kts 226°
2026-05-07 22:46 15.46364 -87.59578 17495 ft 167 kts 226°
2026-05-07 22:46 15.45595 -87.60478 17673 ft 167 kts 226°
2026-05-07 22:47 15.44826 -87.61381 17851 ft 167 kts 226°
2026-05-07 22:47 15.44055 -87.62287 18006 ft 169 kts 226°
2026-05-07 22:47 15.43252 -87.63226 17988 ft 180 kts 226°
2026-05-07 22:47 15.42396 -87.64221 17881 ft 193 kts 226°
2026-05-07 22:48 15.41487 -87.65277 17827 ft 198 kts 226°
2026-05-07 22:48 15.40568 -87.66343 17828 ft 199 kts 226°
2026-05-07 22:48 15.39644 -87.67415 17825 ft 199 kts 226°
2026-05-07 22:48 15.38725 -87.68482 17825 ft 197 kts 226°
2026-05-07 22:49 15.37816 -87.69536 17821 ft 194 kts 226°
2026-05-07 22:49 15.36924 -87.70573 17810 ft 191 kts 226°
2026-05-07 22:49 15.36044 -87.71592 17805 ft 189 kts 226°
2026-05-07 22:49 15.35172 -87.72605 17803 ft 187 kts 226°
2026-05-07 22:50 15.34305 -87.73613 17797 ft 186 kts 226°
2026-05-07 22:50 15.33458 -87.74597 17797 ft 184 kts 226°
2026-05-07 22:50 15.32612 -87.75584 17800 ft 183 kts 226°
2026-05-07 22:50 15.31771 -87.76566 17802 ft 181 kts 226°
2026-05-07 22:51 15.30934 -87.77541 17797 ft 181 kts 226°
2026-05-07 22:51 15.30135 -87.78542 17799 ft 180 kts 230°
2026-05-07 22:51 15.29368 -87.79571 17802 ft 180 kts 230°
2026-05-07 22:51 15.28602 -87.80599 17805 ft 180 kts 230°
2026-05-07 22:52 15.27836 -87.81628 17803 ft 180 kts 230°
2026-05-07 22:52 15.27069 -87.82653 17801 ft 179 kts 230°
2026-05-07 22:52 15.26310 -87.83674 17805 ft 177 kts 230°
2026-05-07 22:52 15.25558 -87.84687 17803 ft 177 kts 230°
2026-05-07 22:53 15.24804 -87.85702 17807 ft 178 kts 230°
2026-05-07 22:53 15.24052 -87.86713 17805 ft 181 kts 230°
2026-05-07 22:53 15.23283 -87.87745 17807 ft 181 kts 230°
2026-05-07 22:53 15.22512 -87.88782 17810 ft 182 kts 230°
2026-05-07 22:54 15.21740 -87.89819 17811 ft 182 kts 230°
2026-05-07 22:54 15.20966 -87.90859 17807 ft 182 kts 230°
2026-05-07 22:54 15.20193 -87.91899 17807 ft 182 kts 230°
2026-05-07 22:54 15.19417 -87.92941 17808 ft 182 kts 230°
2026-05-07 22:55 15.18641 -87.93984 17808 ft 183 kts 230°
2026-05-07 22:55 15.17866 -87.95025 17808 ft 183 kts 230°
2026-05-07 22:55 15.17090 -87.96069 17809 ft 183 kts 230°
2026-05-07 22:55 15.16322 -87.97102 17810 ft 183 kts 230°
2026-05-07 22:56 15.15543 -87.98148 17811 ft 184 kts 230°
2026-05-07 22:56 15.14763 -87.99198 17811 ft 184 kts 230°
2026-05-07 22:56 15.13988 -88.00246 17822 ft 184 kts 230°
2026-05-07 22:56 15.13212 -88.01298 17824 ft 184 kts 230°
2026-05-07 22:57 15.12433 -88.02354 17824 ft 184 kts 230°
2026-05-07 22:57 15.12110 -88.02793 16423 ft 180 kts 231°
2026-05-07 22:57 15.11353 -88.03801 17889 ft 180 kts 230°
2026-05-07 22:57 15.10581 -88.04845 17846 ft 183 kts 230°
2026-05-07 22:58 15.09806 -88.05898 17843 ft 184 kts 230°
2026-05-07 22:58 15.09031 -88.06950 17844 ft 184 kts 230°
2026-05-07 22:58 15.08253 -88.08005 17844 ft 184 kts 230°
2026-05-07 22:58 15.07486 -88.09047 17844 ft 185 kts 230°
2026-05-07 22:59 15.06711 -88.10108 17846 ft 185 kts 230°
2026-05-07 22:59 15.05937 -88.11170 17848 ft 185 kts 230°
2026-05-07 22:59 15.05158 -88.12236 17851 ft 185 kts 230°
2026-05-07 22:59 15.04378 -88.13305 17855 ft 186 kts 230°
2026-05-07 23:00 15.03600 -88.14370 17855 ft 185 kts 230°
2026-05-07 23:00 15.02819 -88.15439 17852 ft 186 kts 230°
2026-05-07 23:00 15.02048 -88.16505 17863 ft 184 kts 232°
2026-05-07 23:00 15.01298 -88.17583 17865 ft 184 kts 228°
2026-05-07 23:01 15.00351 -88.18455 17866 ft 182 kts 209°
2026-05-07 23:01 14.99249 -88.19086 17878 ft 180 kts 204°
2026-05-07 23:01 14.98157 -88.19686 17877 ft 180 kts 205°
2026-05-07 23:01 14.97051 -88.20317 17874 ft 181 kts 206°
2026-05-07 23:02 14.95947 -88.20951 17883 ft 181 kts 206°
2026-05-07 23:02 14.94846 -88.21582 17883 ft 182 kts 206°
2026-05-07 23:02 14.93739 -88.22216 17883 ft 181 kts 206°
2026-05-07 23:02 14.92632 -88.22851 17890 ft 182 kts 206°
2026-05-07 23:03 14.91524 -88.23485 17889 ft 182 kts 206°
2026-05-07 23:03 14.90416 -88.24120 17891 ft 182 kts 206°
2026-05-07 23:03 14.89307 -88.24756 17905 ft 182 kts 206°
2026-05-07 23:03 14.88201 -88.25389 17904 ft 182 kts 206°
2026-05-07 23:04 14.87097 -88.26021 17908 ft 182 kts 206°
2026-05-07 23:04 14.85990 -88.26654 17911 ft 182 kts 206°
2026-05-07 23:04 14.84875 -88.27292 17907 ft 184 kts 206°
2026-05-07 23:04 14.83749 -88.27937 17919 ft 185 kts 206°
2026-05-07 23:05 14.82634 -88.28575 17924 ft 186 kts 206°
2026-05-07 23:05 14.81502 -88.29223 17922 ft 186 kts 206°
2026-05-07 23:05 14.80369 -88.29871 17940 ft 186 kts 206°
2026-05-07 23:05 14.79234 -88.30521 17932 ft 187 kts 206°
2026-05-07 23:06 14.78099 -88.31171 17934 ft 187 kts 206°
2026-05-07 23:06 14.76963 -88.31821 17952 ft 185 kts 206°
2026-05-07 23:06 14.75832 -88.32467 17957 ft 186 kts 206°
2026-05-07 23:06 14.74702 -88.33113 17955 ft 186 kts 206°
2026-05-07 23:07 14.73570 -88.33760 17954 ft 186 kts 206°
2026-05-07 23:07 14.72447 -88.34403 17964 ft 183 kts 206°
2026-05-07 23:07 14.71344 -88.35034 17960 ft 184 kts 205°
2026-05-07 23:07 14.70223 -88.35674 17968 ft 184 kts 206°
2026-05-07 23:08 14.69099 -88.36315 17967 ft 184 kts 205°
2026-05-07 23:08 14.67977 -88.36956 17966 ft 184 kts 206°
2026-05-07 23:08 14.66855 -88.37599 17963 ft 185 kts 206°
2026-05-07 23:08 14.65731 -88.38240 17968 ft 185 kts 206°
2026-05-07 23:09 14.64608 -88.38881 17969 ft 185 kts 206°
2026-05-07 23:09 14.63475 -88.39529 17975 ft 187 kts 206°
2026-05-07 23:09 14.62334 -88.40182 17976 ft 188 kts 205°
2026-05-07 23:09 14.61198 -88.40827 17975 ft 187 kts 206°
2026-05-07 23:10 14.60057 -88.41479 17973 ft 188 kts 206°
2026-05-07 23:10 14.58916 -88.42132 17975 ft 187 kts 206°
2026-05-07 23:10 14.57772 -88.42784 17981 ft 188 kts 206°
2026-05-07 23:10 14.56624 -88.43440 17979 ft 189 kts 206°
2026-05-07 23:11 14.55472 -88.44097 17984 ft 191 kts 206°
2026-05-07 23:11 14.54303 -88.44766 17984 ft 192 kts 206°
2026-05-07 23:11 14.53141 -88.45432 17985 ft 191 kts 206°
2026-05-07 23:11 14.51975 -88.46098 17990 ft 193 kts 205°
2026-05-07 23:12 14.50793 -88.46767 17989 ft 194 kts 206°
2026-05-07 23:12 14.49612 -88.47440 17991 ft 192 kts 206°
2026-05-07 23:12 14.48443 -88.48102 17990 ft 192 kts 206°
2026-05-07 23:12 14.47268 -88.48773 17983 ft 192 kts 205°
2026-05-07 23:13 14.46119 -88.49431 17980 ft 191 kts 205°
2026-05-07 23:13 14.44963 -88.50090 17974 ft 190 kts 206°
2026-05-07 23:13 14.43815 -88.50747 17975 ft 188 kts 205°
2026-05-07 23:13 14.42669 -88.51405 17976 ft 187 kts 205°
2026-05-07 23:14 14.41529 -88.52051 17973 ft 186 kts 205°
2026-05-07 23:14 14.40395 -88.52694 17974 ft 186 kts 205°
2026-05-07 23:14 14.39263 -88.53339 17972 ft 186 kts 205°
2026-05-07 23:14 14.38145 -88.53975 17971 ft 185 kts 205°
2026-05-07 23:15 14.37021 -88.54616 17969 ft 184 kts 205°
2026-05-07 23:15 14.35898 -88.55256 17968 ft 184 kts 205°
2026-05-07 23:15 14.34779 -88.55893 17961 ft 184 kts 205°
2026-05-07 23:15 14.33656 -88.56532 17961 ft 184 kts 205°
2026-05-07 23:16 14.32537 -88.57169 17961 ft 184 kts 205°
2026-05-07 23:16 14.31417 -88.57807 17963 ft 184 kts 205°
2026-05-07 23:16 14.30299 -88.58444 17961 ft 183 kts 205°
2026-05-07 23:16 14.29181 -88.59080 17961 ft 183 kts 205°
2026-05-07 23:17 14.28073 -88.59710 17951 ft 184 kts 205°
2026-05-07 23:17 14.26952 -88.60348 17954 ft 184 kts 206°
2026-05-07 23:17 14.25832 -88.60986 17954 ft 184 kts 205°
2026-05-07 23:17 14.24710 -88.61627 17953 ft 184 kts 205°
2026-05-07 23:18 14.23594 -88.62266 17954 ft 183 kts 205°
2026-05-07 23:18 14.22469 -88.62907 17839 ft 190 kts 205°
2026-05-07 23:18 14.21278 -88.63585 17577 ft 200 kts 206°
2026-05-07 23:18 14.20037 -88.64296 17314 ft 207 kts 206°
2026-05-07 23:19 14.18767 -88.65022 17047 ft 210 kts 206°
2026-05-07 23:19 14.17479 -88.65757 16753 ft 212 kts 206°
2026-05-07 23:19 14.16191 -88.66493 16458 ft 212 kts 206°
2026-05-07 23:19 14.14920 -88.67219 16164 ft 212 kts 207°
2026-05-07 23:20 14.13620 -88.67961 15863 ft 213 kts 206°
2026-05-07 23:20 14.12328 -88.68698 15562 ft 211 kts 206°
2026-05-07 23:20 14.11046 -88.69429 15275 ft 210 kts 207°
2026-05-07 23:20 14.09774 -88.70155 15000 ft 208 kts 207°
2026-05-07 23:21 14.08512 -88.70876 14724 ft 207 kts 207°
2026-05-07 23:21 14.07245 -88.71598 14448 ft 207 kts 207°
2026-05-07 23:21 14.05983 -88.72318 14175 ft 207 kts 207°
2026-05-07 23:21 14.04728 -88.73033 13901 ft 206 kts 207°
2026-05-07 23:22 14.03477 -88.73747 13624 ft 205 kts 207°
2026-05-07 23:22 14.02232 -88.74457 13345 ft 205 kts 207°
2026-05-07 23:22 14.00907 -88.74951 13071 ft 202 kts 189°
2026-05-07 23:22 13.99524 -88.75240 12796 ft 203 kts 190°
2026-05-07 23:23 13.98151 -88.75559 12523 ft 203 kts 191°
2026-05-07 23:23 13.96774 -88.75876 12244 ft 203 kts 190°
2026-05-07 23:23 13.95860 -88.76084 12066 ft 202 kts 190°
2026-05-07 23:23 13.94487 -88.76396 11791 ft 202 kts 190°
2026-05-07 23:24 13.92676 -88.76807 11428 ft 202 kts 190°
2026-05-07 23:24 13.91303 -88.77119 11155 ft 202 kts 190°
2026-05-07 23:24 13.90378 -88.77329 10968 ft 201 kts 191°
2026-05-07 23:24 13.89012 -88.77640 10693 ft 201 kts 191°
2026-05-07 23:25 13.87207 -88.78051 10330 ft 200 kts 191°
2026-05-07 23:25 13.85855 -88.78358 10054 ft 199 kts 190°
2026-05-07 23:25 13.84959 -88.78561 9871 ft 198 kts 190°
2026-05-07 23:25 13.83611 -88.78867 9597 ft 198 kts 191°
2026-05-07 23:26 13.82267 -88.79172 9323 ft 198 kts 191°
2026-05-07 23:26 13.80923 -88.79477 9046 ft 197 kts 190°
2026-05-07 23:26 13.79586 -88.79781 8770 ft 197 kts 191°
2026-05-07 23:26 13.78254 -88.80083 8498 ft 196 kts 191°
2026-05-07 23:27 13.75600 -88.80685 7946 ft 194 kts 190°
2026-05-07 23:27 13.74287 -88.80984 7671 ft 194 kts 191°
2026-05-07 23:27 13.72971 -88.81282 7397 ft 193 kts 190°
2026-05-07 23:28 13.71660 -88.81579 7123 ft 193 kts 191°
2026-05-07 23:28 13.70349 -88.81877 6848 ft 192 kts 190°
2026-05-07 23:28 13.69354 -88.82102 6639 ft 192 kts 190°
2026-05-07 23:28 13.68052 -88.82397 6360 ft 191 kts 190°
2026-05-07 23:29 13.66746 -88.82536 6085 ft 187 kts 175°
2026-05-07 23:29 13.65475 -88.82430 5831 ft 185 kts 173°
2026-05-07 23:29 13.64202 -88.82313 5604 ft 182 kts 173°
2026-05-07 23:29 13.62954 -88.82170 5378 ft 178 kts 168°
2026-05-07 23:30 13.61767 -88.81878 5151 ft 174 kts 164°
2026-05-07 23:30 13.60605 -88.81558 4921 ft 172 kts 164°
2026-05-07 23:30 13.59449 -88.81230 4694 ft 173 kts 164°
2026-05-07 23:30 13.58272 -88.81016 4457 ft 172 kts 184°
2026-05-07 23:31 13.57177 -88.81492 4224 ft 173 kts 213°
2026-05-07 23:31 13.56191 -88.82199 4000 ft 172 kts 214°
2026-05-07 23:31 13.55207 -88.82901 3776 ft 172 kts 214°
2026-05-07 23:31 13.54228 -88.83602 3554 ft 172 kts 213°
2026-05-07 23:32 13.53265 -88.84311 3465 ft 166 kts 214°
2026-05-07 23:32 13.52343 -88.84996 3459 ft 160 kts 214°
2026-05-07 23:32 13.51479 -88.85692 3453 ft 156 kts 214°
2026-05-07 23:32 13.50743 -88.86501 3447 ft 156 kts 239°
2026-05-07 23:33 13.50437 -88.87540 3443 ft 148 kts 252°
2026-05-07 23:33 13.50118 -88.88534 3258 ft 148 kts 249°
2026-05-07 23:33 13.49781 -88.89524 3055 ft 144 kts 249°
2026-05-07 23:33 13.49457 -88.90476 2864 ft 139 kts 248°
2026-05-07 23:34 13.49133 -88.91387 2696 ft 130 kts 247°
2026-05-07 23:34 13.48834 -88.92215 2526 ft 119 kts 247°
2026-05-07 23:34 13.48562 -88.92997 2368 ft 113 kts 246°
2026-05-07 23:34 13.48297 -88.93733 2228 ft 103 kts 247°
2026-05-07 23:35 13.48057 -88.94405 2093 ft 99 kts 246°
2026-05-07 23:35 13.47829 -88.95056 1964 ft 97 kts 247°
2026-05-07 23:35 13.47596 -88.95705 1833 ft 97 kts 248°
2026-05-07 23:35 13.47367 -88.96351 1706 ft 96 kts 246°
2026-05-07 23:36 13.47142 -88.96994 1581 ft 95 kts 247°
2026-05-07 23:36 13.46911 -88.97635 1452 ft 95 kts 248°
2026-05-07 23:36 13.46684 -88.98275 1326 ft 95 kts 246°
2026-05-07 23:36 13.46459 -88.98918 1198 ft 96 kts 248°
2026-05-07 23:37 13.46228 -88.99560 1071 ft 96 kts 248°
2026-05-07 23:37 13.46002 -89.00199 944 ft 95 kts 246°
2026-05-07 23:37 13.45785 -89.00816 824 ft 86 kts 247°
2026-05-07 23:37 13.45587 -89.01366 710 ft 81 kts 248°
2026-05-07 23:38 13.45397 -89.01899 604 ft 79 kts 246°
2026-05-07 23:38 13.45214 -89.02424 501 ft 77 kts 247°
2026-05-07 23:38 13.45029 -89.02941 398 ft 77 kts 248°
2026-05-07 23:38 13.44846 -89.03451 297 ft 76 kts 246°
2026-05-07 23:39 13.44665 -89.03964 172 ft 75 kts 248°
2026-05-07 23:39 13.44490 -89.04447 101 ft 66 kts 247°
2026-05-07 23:39 13.44358 -89.04826 96 ft 42 kts 250°
2026-05-07 23:39 13.44264 -89.05090 94 ft 43 kts 252°
2026-05-07 23:40 13.44201 -89.05275 92 ft 15 kts 254°
2026-05-07 23:40 13.44276 -89.05349 93 ft 18 kts 342°
2026-05-07 23:40 13.44328 -89.05438 94 ft 21 kts 249°
2026-05-07 23:40 13.44266 -89.05608 90 ft 29 kts 250°
2026-05-07 23:41 13.44193 -89.05810 92 ft 32 kts 253°
2026-05-07 23:41 13.44117 -89.06025 91 ft 32 kts 250°
2026-05-07 23:41 13.44037 -89.06254 91 ft 35 kts 250°
2026-05-07 23:41 13.43998 -89.06362 90 ft 14 kts 249°
2026-05-07 23:42 13.44057 -89.06440 92 ft 8 kts 350°
2026-05-07 23:42 13.44113 -89.06454 91 ft 4 kts 346°
2026-05-07 23:42 13.44131 -89.06459 91 ft 0 kts 345°